Regional Weather Roundup
Issued by NWS Cleveland, OH

Home | Current Version | Previous Version | Graphics & Text | Print | Product List | Glossary On
Versions: 1 2 3 4 5 6 7 8 9 10 11 12 13 14 15 16 17 18 19 20 21 22 23 24 25 26 27 28 29 30 31 32 33 34 35 36 37 38 39 40 41 42 43 44 45 46 47 48 49 50
000
ASUS41 KCLE 280902
RWRCLE
OHIO REGIONAL WEATHER ROUNDUP
NATIONAL WEATHER SERVICE CLEVELAND, OH
500 AM EDT WED SEP 28 2016

NOTE: "FAIR" INDICATES FEW OR NO CLOUDS BELOW 12,000 FEET WITH NO
SIGNIFICANT WEATHER AND/OR OBSTRUCTIONS TO VISIBILITY.

OHZ001>008-015>018-024>027-034-035-043-044-281000-
   NORTHWEST OHIO

CITY           SKY/WX    TMP DP  RH WIND       PRES   REMARKS
DEFIANCE       CLOUDY    52  46  80 E3        29.79F
FINDLAY        CLOUDY    57  48  72 S7        29.80F
TOLEDO EXPRESS CLOUDY    49  47  93 CALM      29.80F
TOLEDO EXEC    CLOUDY    52  45  77 SE3       29.82F
LIMA           CLOUDY    56  50  80 S8        29.82R
$$

OHZ009>014-019>023-028>033-038-089-281000-
   NORTHEAST OHIO

CITY           SKY/WX    TMP DP  RH WIND       PRES   REMARKS
CLE-HOPKINS    PTCLDY    58  44  60 S9        29.88R
CLE-LAKEFRONT  CLEAR     60  44  55 SE12      29.84S
CUY CO. ARPT   NOT AVBL
LORAIN-ELYRIA  MOCLDY    55  44  66 S9        29.85S
ASHTABULA      CLEAR     53  44  71 SE8       29.91R
AKRON-CANTON   PTCLDY    53  42  66 SE7       29.90R
WOOSTER        PTCLDY    52  42  69 CALM      29.89R
MANSFIELD      PTCLDY    55  45  68 SE8       29.86S
YOUNGSTOWN     MOCLDY    54  41  61 SE9       29.91R
$$

OHZ042-051>053-060>062-070>072-077>081-281000-
  SOUTHWEST OHIO

CITY           SKY/WX    TMP DP  RH WIND       PRES   REMARKS
CINC-COVINGTON PTCLDY    56  48  74 S9        29.83F
CINC-LUNKEN    CLOUDY    54  52  93 CALM      29.85F
HAMILTON       MOCLDY    56  49  77 SE3       29.83F
DAYTON         LGT RAIN  58  50  75 S7        29.83S
WRIGHT-PAT AFB CLOUDY    58  49  73 S7        29.82F
DAYTON GENERAL CLOUDY    58  48  69 S10       29.82F
WILMINGTON     PTCLDY    54  46  74 S7        29.85F
$$

OHZ036-037-039>041-045>050-054>059-063>069-073>076-082>088-281000-
  CENTRAL AND SOUTHEAST OHIO

CITY           SKY/WX    TMP DP  RH WIND       PRES   REMARKS
COLUMBUS       PTCLDY    55  47  74 CALM      29.86S
OSU AIRPORT    PTCLDY    56  46  69 S5        29.85S
BOLTON FIELD   NOT AVBL
RICKENBACK AFB PTCLDY    54  44  71 S6        29.86S
NEWARK         CLEAR     46  44  93 CALM      29.87F
MARION         PTCLDY    54  46  74 SE10      29.84F
LANCASTER      PTCLDY    52  45  77 SE5       29.87F
ZANESVILLE     CLEAR     50  43  77 SE5       29.89F
NEW PHILLY     PTCLDY    48  44  86 SE5       29.91S
$$



USA.gov is the U.S. government's official web portal to all federal, state and local government web resources and services.